SAS1421 ESSA-EKCH

Flight info

Callsign SAS1421
Flight time 0h 53m
Altitude 34000
Route PETEV N872 ERNOV
Aircraft A319/M-SDE3FGHIRWY/LB1

Departure

Time 2026-04-23 09:10
Airport Stockholm-Arlanda Airport (ESSA)

Arrival

Time 2026-04-23 10:04
Airport Copenhagen Kastrup Airport (EKCH)
Time Latitude Longitude Altitude Speed Heading
2026-04-23 08:57 59.65330 17.93136 112 ft 0 kts 251°
2026-04-23 09:04 59.65334 17.93160 112 ft 4 kts 251°
2026-04-23 09:05 59.65343 17.93210 110 ft 4 kts 254°
2026-04-23 09:05 59.65345 17.93259 110 ft 4 kts 290°
2026-04-23 09:05 59.65331 17.93293 111 ft 2 kts 345°
2026-04-23 09:05 59.65325 17.93297 111 ft 0 kts 346°
2026-04-23 09:08 59.65329 17.93295 112 ft 4 kts 346°
2026-04-23 09:08 59.65386 17.93267 112 ft 12 kts 346°
2026-04-23 09:08 59.65476 17.93193 112 ft 16 kts 335°
2026-04-23 09:09 59.65592 17.93170 109 ft 19 kts 39°
2026-04-23 09:09 59.65674 17.93393 109 ft 22 kts 46°
2026-04-23 09:09 59.65779 17.93612 114 ft 22 kts 46°
2026-04-23 09:09 59.65872 17.93851 117 ft 23 kts 76°
2026-04-23 09:10 59.65940 17.94398 122 ft 71 kts 75°
2026-04-23 09:10 59.66360 17.97776 467 ft 154 kts 73°
2026-04-23 09:10 59.66609 17.99826 1240 ft 153 kts 70°
2026-04-23 09:11 59.66878 18.01917 1757 ft 165 kts 70°
2026-04-23 09:11 59.67211 18.04241 2109 ft 186 kts 64°
2026-04-23 09:11 59.67948 18.06456 2501 ft 201 kts 39°
2026-04-23 09:11 59.69155 18.07825 3208 ft 201 kts 13°
2026-04-23 09:12 59.70532 18.07961 4012 ft 200 kts 348°
2026-04-23 09:12 59.71784 18.06852 5018 ft 198 kts 323°
2026-04-23 09:12 59.72655 18.04776 5951 ft 204 kts 299°
2026-04-23 09:12 59.72956 18.01977 6814 ft 216 kts 272°
2026-04-23 09:13 59.72516 17.99053 7617 ft 230 kts 249°
2026-04-23 09:13 59.71782 17.96212 8447 ft 233 kts 250°
2026-04-23 09:13 59.71037 17.93326 9271 ft 237 kts 250°
2026-04-23 09:13 59.70302 17.90325 9888 ft 252 kts 253°
2026-04-23 09:14 59.69564 17.87004 10271 ft 275 kts 255°
2026-04-23 09:14 59.69024 17.83264 10588 ft 294 kts 264°
2026-04-23 09:14 59.68547 17.79164 10850 ft 318 kts 263°
2026-04-23 09:14 59.68013 17.74788 11279 ft 334 kts 262°
2026-04-23 09:15 59.67117 17.70433 11960 ft 351 kts 246°
2026-04-23 09:15 59.65592 17.66544 12695 ft 366 kts 230°
2026-04-23 09:15 59.63501 17.63509 13421 ft 381 kts 212°
2026-04-23 09:15 59.60995 17.61609 14106 ft 391 kts 201°
2026-04-23 09:16 59.58387 17.60011 14739 ft 395 kts 200°
2026-04-23 09:16 59.55738 17.58412 15364 ft 400 kts 200°
2026-04-23 09:16 59.53149 17.56424 15979 ft 399 kts 211°
2026-04-23 09:16 59.50798 17.53561 16597 ft 397 kts 223°
2026-04-23 09:17 59.48709 17.50013 17217 ft 398 kts 228°
2026-04-23 09:17 59.46645 17.46345 17851 ft 402 kts 228°
2026-04-23 09:17 59.44553 17.42658 18467 ft 406 kts 228°
2026-04-23 09:17 59.42436 17.38945 19009 ft 410 kts 228°
2026-04-23 09:18 59.40300 17.35206 19581 ft 413 kts 228°
2026-04-23 09:18 59.38142 17.31437 20159 ft 416 kts 228°
2026-04-23 09:18 59.35972 17.27652 20737 ft 420 kts 228°
2026-04-23 09:18 59.33783 17.23837 21304 ft 423 kts 228°
2026-04-23 09:19 59.31577 17.19997 21831 ft 426 kts 228°
2026-04-23 09:19 59.29345 17.16122 22354 ft 430 kts 228°
2026-04-23 09:19 59.27095 17.12218 22880 ft 433 kts 228°
2026-04-23 09:19 59.24833 17.08295 23402 ft 436 kts 228°
2026-04-23 09:20 59.22548 17.04341 23876 ft 440 kts 228°
2026-04-23 09:20 59.20248 17.00378 24298 ft 443 kts 228°
2026-04-23 09:20 59.17903 16.96445 24716 ft 447 kts 227°
2026-04-23 09:20 59.15512 16.92545 25133 ft 450 kts 226°
2026-04-23 09:21 59.13086 16.88649 25544 ft 453 kts 226°
2026-04-23 09:21 59.10675 16.84801 25938 ft 456 kts 226°
2026-04-23 09:21 59.08219 16.80885 26338 ft 457 kts 226°
2026-04-23 09:21 59.05762 16.76955 26770 ft 459 kts 226°
2026-04-23 09:22 59.03294 16.72990 27182 ft 461 kts 226°
2026-04-23 09:22 59.00817 16.68999 27585 ft 463 kts 226°
2026-04-23 09:22 58.98331 16.64993 27967 ft 466 kts 226°
2026-04-23 09:22 58.95829 16.60969 28359 ft 469 kts 226°
2026-04-23 09:23 58.93309 16.56930 28740 ft 472 kts 226°
2026-04-23 09:23 58.90767 16.52868 29120 ft 474 kts 226°
2026-04-23 09:23 58.88215 16.48800 29487 ft 477 kts 226°
2026-04-23 09:23 58.85642 16.44717 29843 ft 480 kts 226°
2026-04-23 09:24 58.83053 16.40624 30173 ft 483 kts 226°
2026-04-23 09:24 58.80446 16.36507 30444 ft 486 kts 226°
2026-04-23 09:24 58.77824 16.32368 30730 ft 488 kts 226°
2026-04-23 09:24 58.75184 16.28205 31017 ft 491 kts 226°
2026-04-23 09:25 58.72540 16.24041 31302 ft 493 kts 226°
2026-04-23 09:25 58.69882 16.19859 31619 ft 494 kts 226°
2026-04-23 09:25 58.67218 16.15680 32016 ft 493 kts 226°
2026-04-23 09:25 58.64555 16.11516 32418 ft 492 kts 226°
2026-04-23 09:26 58.61903 16.07381 32821 ft 492 kts 226°
2026-04-23 09:26 58.59284 16.03301 33209 ft 491 kts 225°
2026-04-23 09:26 58.56631 15.99174 33594 ft 491 kts 225°
2026-04-23 09:26 58.53966 15.95038 33995 ft 491 kts 225°
2026-04-23 09:27 58.51311 15.90924 34167 ft 489 kts 225°
2026-04-23 09:27 58.46058 15.82828 34194 ft 483 kts 225°
2026-04-23 09:28 58.40827 15.74792 34191 ft 482 kts 225°
2026-04-23 09:28 58.35610 15.66797 34174 ft 480 kts 224°
2026-04-23 09:29 58.30409 15.58860 34190 ft 479 kts 224°
2026-04-23 09:29 58.25204 15.50946 34188 ft 479 kts 224°
2026-04-23 09:30 58.20003 15.43077 34191 ft 479 kts 224°
2026-04-23 09:30 58.14820 15.35260 34187 ft 478 kts 224°
2026-04-23 09:31 58.09613 15.27419 34173 ft 479 kts 224°
2026-04-23 09:31 58.04390 15.19588 34177 ft 479 kts 223°
2026-04-23 09:32 57.99157 15.11791 34186 ft 480 kts 223°
2026-04-23 09:32 57.93912 15.04025 34195 ft 479 kts 223°
2026-04-23 09:33 57.88663 14.96274 34196 ft 479 kts 223°
2026-04-23 09:33 57.83418 14.88545 34197 ft 479 kts 223°
2026-04-23 09:34 57.78172 14.80827 34197 ft 479 kts 223°
2026-04-23 09:34 57.72915 14.73136 34198 ft 479 kts 223°
2026-04-23 09:35 57.67659 14.65478 34195 ft 479 kts 223°
2026-04-23 09:35 57.63289 14.59128 34181 ft 478 kts 222°
2026-04-23 09:36 57.58044 14.51542 34213 ft 477 kts 222°
2026-04-23 09:36 57.51956 14.42775 34217 ft 475 kts 222°
2026-04-23 09:37 57.46727 14.35274 34214 ft 475 kts 222°
2026-04-23 09:37 57.42343 14.29006 33947 ft 474 kts 222°
2026-04-23 09:37 57.39728 14.25275 33666 ft 475 kts 222°
2026-04-23 09:38 57.37141 14.21588 33373 ft 474 kts 221°
2026-04-23 09:38 57.34524 14.17860 33109 ft 475 kts 221°
2026-04-23 09:38 57.31868 14.14087 32841 ft 476 kts 221°
2026-04-23 09:38 57.29273 14.10417 32584 ft 476 kts 221°
2026-04-23 09:39 57.26637 14.06693 32327 ft 477 kts 221°
2026-04-23 09:39 57.23992 14.02967 32090 ft 478 kts 221°
2026-04-23 09:39 57.21341 13.99243 31832 ft 478 kts 221°
2026-04-23 09:39 57.18696 13.95532 31577 ft 477 kts 221°
2026-04-23 09:40 57.16051 13.91825 31334 ft 476 kts 221°
2026-04-23 09:40 57.13423 13.88146 31081 ft 475 kts 221°
2026-04-23 09:40 57.10791 13.84467 30832 ft 474 kts 221°
2026-04-23 09:40 57.08175 13.80811 30555 ft 470 kts 221°
2026-04-23 09:41 57.05578 13.77192 29956 ft 468 kts 221°
2026-04-23 09:41 57.02995 13.73599 29391 ft 463 kts 221°
2026-04-23 09:41 57.00436 13.70046 28833 ft 459 kts 221°
2026-04-23 09:41 56.97893 13.66520 28270 ft 456 kts 221°
2026-04-23 09:42 56.95375 13.63035 27690 ft 452 kts 220°
2026-04-23 09:42 56.92878 13.59591 27186 ft 447 kts 220°
2026-04-23 09:42 56.90407 13.56186 26635 ft 443 kts 220°
2026-04-23 09:42 56.87959 13.52813 26126 ft 439 kts 220°
2026-04-23 09:43 56.85526 13.49463 25608 ft 436 kts 220°
2026-04-23 09:43 56.83109 13.46143 25113 ft 432 kts 220°
2026-04-23 09:43 56.80710 13.42859 24629 ft 430 kts 220°
2026-04-23 09:43 56.78323 13.39602 24163 ft 427 kts 220°
2026-04-23 09:44 56.75947 13.36372 23673 ft 425 kts 220°
2026-04-23 09:44 56.73585 13.33163 23191 ft 422 kts 220°
2026-04-23 09:44 56.71249 13.29985 22736 ft 417 kts 220°
2026-04-23 09:44 56.68938 13.26836 22268 ft 413 kts 220°
2026-04-23 09:45 56.66650 13.23716 21803 ft 409 kts 220°
2026-04-23 09:45 56.64411 13.20663 21349 ft 405 kts 220°
2026-04-23 09:45 56.62164 13.17606 20871 ft 402 kts 220°
2026-04-23 09:45 56.59925 13.14580 20394 ft 399 kts 220°
2026-04-23 09:46 56.57698 13.11584 19898 ft 396 kts 220°
2026-04-23 09:46 56.55489 13.08620 19402 ft 394 kts 220°
2026-04-23 09:46 56.53289 13.05667 18897 ft 393 kts 220°
2026-04-23 09:46 56.51097 13.02722 18386 ft 391 kts 220°
2026-04-23 09:47 56.48915 12.99798 17847 ft 389 kts 220°
2026-04-23 09:47 56.46748 12.96903 17353 ft 385 kts 220°
2026-04-23 09:47 56.44606 12.94047 16852 ft 381 kts 220°
2026-04-23 09:47 56.42475 12.91222 16348 ft 379 kts 218°
2026-04-23 09:48 56.40130 12.89058 16052 ft 382 kts 202°
2026-04-23 09:48 56.37623 12.87467 15805 ft 381 kts 201°
2026-04-23 09:48 56.35121 12.85898 15560 ft 380 kts 201°
2026-04-23 09:48 56.32633 12.84351 15316 ft 378 kts 201°
2026-04-23 09:49 56.30154 12.82815 15076 ft 376 kts 201°
2026-04-23 09:49 56.27686 12.81290 14837 ft 374 kts 201°
2026-04-23 09:49 56.25227 12.79774 14599 ft 372 kts 201°
2026-04-23 09:49 56.22785 12.78273 14359 ft 371 kts 201°
2026-04-23 09:50 56.20348 12.76775 14125 ft 369 kts 201°
2026-04-23 09:50 56.17926 12.75287 13871 ft 367 kts 201°
2026-04-23 09:50 56.15544 12.73823 13603 ft 365 kts 201°
2026-04-23 09:50 56.13116 12.72332 13343 ft 363 kts 201°
2026-04-23 09:51 56.10726 12.70866 13084 ft 362 kts 201°
2026-04-23 09:51 56.08384 12.69428 12828 ft 360 kts 201°
2026-04-23 09:51 56.06019 12.67977 12578 ft 358 kts 201°
2026-04-23 09:51 56.03667 12.66534 12335 ft 357 kts 201°
2026-04-23 09:52 56.01325 12.65104 12070 ft 355 kts 201°
2026-04-23 09:52 55.98992 12.63684 11820 ft 353 kts 201°
2026-04-23 09:52 55.96665 12.62270 11573 ft 352 kts 201°
2026-04-23 09:52 55.94366 12.60876 11175 ft 346 kts 201°
2026-04-23 09:53 55.92086 12.59493 10693 ft 345 kts 201°
2026-04-23 09:53 55.89849 12.58134 10518 ft 333 kts 201°
2026-04-23 09:53 55.87696 12.56831 10394 ft 321 kts 201°
2026-04-23 09:53 55.85607 12.55569 10181 ft 314 kts 201°
2026-04-23 09:54 55.83556 12.54331 9958 ft 310 kts 201°
2026-04-23 09:54 55.81512 12.53096 9564 ft 310 kts 201°
2026-04-23 09:54 55.79473 12.51865 9157 ft 310 kts 201°
2026-04-23 09:54 55.77428 12.50630 8746 ft 310 kts 201°
2026-04-23 09:55 55.75391 12.49404 8384 ft 308 kts 201°
2026-04-23 09:55 55.73378 12.48194 8009 ft 308 kts 201°
2026-04-23 09:55 55.71360 12.46981 7672 ft 306 kts 201°
2026-04-23 09:55 55.69354 12.45778 7380 ft 302 kts 201°
2026-04-23 09:56 55.67369 12.44591 7078 ft 300 kts 201°
2026-04-23 09:56 55.65401 12.43419 6774 ft 297 kts 201°
2026-04-23 09:56 55.63449 12.42255 6474 ft 295 kts 201°
2026-04-23 09:56 55.61506 12.41092 6162 ft 293 kts 202°
2026-04-23 09:57 55.59684 12.39517 5821 ft 287 kts 218°
2026-04-23 09:57 55.58158 12.37330 5417 ft 279 kts 226°
2026-04-23 09:57 55.56714 12.35103 4992 ft 273 kts 225°
2026-04-23 09:57 55.55306 12.32910 4577 ft 267 kts 226°
2026-04-23 09:58 55.53921 12.30783 4214 ft 261 kts 220°
2026-04-23 09:58 55.52322 12.29482 3959 ft 256 kts 194°
2026-04-23 09:58 55.50560 12.29430 3728 ft 253 kts 167°
2026-04-23 09:58 55.48970 12.30637 3522 ft 247 kts 140°
2026-04-23 09:59 55.47801 12.32789 3362 ft 242 kts 118°
2026-04-23 09:59 55.47130 12.35460 3211 ft 236 kts 98°
2026-04-23 09:59 55.46999 12.38300 3056 ft 230 kts 78°
2026-04-23 09:59 55.47375 12.40983 2904 ft 223 kts 60°
2026-04-23 10:00 55.48170 12.43239 2761 ft 209 kts 43°
2026-04-23 10:00 55.49181 12.44921 2623 ft 199 kts 36°
2026-04-23 10:00 55.50222 12.46511 2393 ft 196 kts 36°
2026-04-23 10:00 55.51249 12.48085 2138 ft 195 kts 36°
2026-04-23 10:01 55.52265 12.49645 1874 ft 191 kts 36°
2026-04-23 10:01 55.53241 12.51147 1615 ft 180 kts 36°
2026-04-23 10:01 55.54155 12.52554 1425 ft 168 kts 36°
2026-04-23 10:01 55.55014 12.53876 1163 ft 159 kts 36°
2026-04-23 10:02 55.55811 12.55104 955 ft 142 kts 36°
2026-04-23 10:02 55.56518 12.56193 767 ft 129 kts 37°
2026-04-23 10:02 55.57181 12.57213 590 ft 124 kts 36°
2026-04-23 10:02 55.57839 12.58227 430 ft 125 kts 36°
2026-04-23 10:03 55.58485 12.59222 257 ft 123 kts 38°
2026-04-23 10:03 55.59123 12.60221 109 ft 123 kts 37°
2026-04-23 10:03 55.59741 12.61160 27 ft 108 kts 39°
2026-04-23 10:03 55.60257 12.61948 19 ft 92 kts 40°
2026-04-23 10:04 55.60669 12.62582 22 ft 59 kts 40°
2026-04-23 10:04 55.60881 12.62828 19 ft 33 kts 18°
2026-04-23 10:04 55.61105 12.62912 20 ft 24 kts 15°
2026-04-23 10:04 55.61245 12.63101 23 ft 28 kts 42°
2026-04-23 10:05 55.61403 12.63349 20 ft 34 kts 41°
2026-04-23 10:05 55.61598 12.63649 18 ft 40 kts 41°
2026-04-23 10:05 55.61805 12.63969 21 ft 37 kts 42°
2026-04-23 10:05 55.61930 12.64175 21 ft 24 kts 72°
2026-04-23 10:06 55.61970 12.64488 21 ft 26 kts 54°
2026-04-23 10:06 55.62124 12.64673 23 ft 28 kts 33°
2026-04-23 10:06 55.62251 12.64832 24 ft 14 kts 55°
2026-04-23 10:06 55.62210 12.65017 24 ft 21 kts 125°
2026-04-23 10:07 55.62248 12.65199 23 ft 23 kts
2026-04-23 10:07 55.62415 12.65188 21 ft 24 kts 357°
2026-04-23 10:07 55.62586 12.65171 19 ft 22 kts 358°
2026-04-23 10:07 55.62651 12.65225 19 ft 6 kts 68°
2026-04-23 10:08 55.62669 12.65292 19 ft 7 kts 48°
2026-04-23 10:08 55.62719 12.65321 18 ft 6 kts 16°
2026-04-23 10:08 55.62730 12.65327 19 ft 0 kts 15°